Regional Weather Roundup
Issued by NWS Wakefield, VA

Home | Current Version | Previous Version | Graphics & Text | Print | Product List | Glossary On
Versions: 1 2 3 4 5 6 7 8 9 10 11 12 13 14 15 16 17 18 19 20 21 22 23 24 25 26 27 28 29 30 31 32 33 34 35 36 37 38 39 40 41 42 43 44 45 46 47 48 49 50
000
ASUS41 KAKQ 181610
RWRAKQ

REGIONAL WEATHER ROUNDUP
NATIONAL WEATHER SERVICE WAKEFIELD VA
1200 PM EDT THU SEP 18 2014

Note: "fair" indicates few or no clouds below 12,000 feet with no
significant weather and/or obstructions to visibility. * = Denotes
station may not report precipitation (e.g., rain,snow,etc.),
thunder or fog.

VAZ042-051-052>054-056-181700-
NORTHERN VIRGINIA

CITY           SKY/WX    TMP DP  RH WIND       PRES   REMARKS
WASH NATIONAL  PTSUNNY   75  59  57 SW8       30.02S
DULLES         PTSUNNY   71  55  56 W5        30.02F
FORT BELVOIR   NOT AVBL
QUANTICO       PTSUNNY   72  61  68 S6        30.02F
FREDERICKSBRG* PTSUNNY   74  60  62 SW5       30.01S
STAFFORD*      CLOUDY    72  61  67 SW5       30.05F
WARRENTON      PTSUNNY   75  64  67 NW6       30.02S
CULPEPER*      MOSUNNY   73  57  56 CALM      30.02F
MANASSAS*      PTSUNNY   73  63  68 W5        30.02F
LEESBURG*      PTSUNNY   73  59  60 N7        30.03S
WINCHESTER     SUNNY     72  50  46 N5        30.03S
FRONT ROYAL*   MOSUNNY   70  54  56 N5        30.03S
LURAY*         PTSUNNY   73  54  49 CALM      30.03F
$$

VAZ048-049-060>072-079>083-181700-
CENTRAL AND SOUTH CENTRAL VIRGINIA...AND NORTH CENTRAL NORTH CAROLINA

CITY           SKY/WX    TMP DP  RH WIND       PRES   REMARKS
RICHMOND       PTSUNNY   76  58  53 VRB3      30.01F
CHESTERFIELD*  CLOUDY    75  55  50 SE6       30.03F
PETERSBURG*    PTSUNNY   75  58  55 CALM      30.03S
HANOVER        PTSUNNY   74  59  59 SW3       30.03F
TAPPAHANNOCK*  MOSUNNY   75  53  46 CALM      30.03F
CHARLOTTSVILLE MOSUNNY   73  59  61 CALM      30.01F
ORANGE*        SUNNY     72  59  64 S5        30.03S
LOUISA*        PTSUNNY   73  61  64 SW6       30.01S
FARMVILLE*     PTSUNNY   73  55  53 SW6       30.00F
CREWE*         PTSUNNY   74  57  54 S6        30.02S
FORT PICKETT*  MOSUNNY   74  59  58 CALM      30.03S
LUNENBURG*     SUNNY     73  60  62 CALM      30.03S
SOUTH HILL*    SUNNY     75  59  57 MISG      30.07F
LAWRENCEVILLE* SUNNY     73  60  64 CALM      30.03R
ROANOKE RAPIDS SUNNY     73  59  60 E5        30.02S
RALEIGH        MOSUNNY   76  60  57 CALM      30.02F
$$

VAZ088>098-181700-
SOUTHEAST VIRGINIA

CITY           SKY/WX    TMP DP  RH WIND       PRES   REMARKS
NORFOLK        SUNNY     74  55  51 NE7       30.02S
VIRGINIA BEACH MOSUNNY   75  55  49 E9        30.01S
NORFOLK NAVAL  MOSUNNY   76  55  48 NE8       30.03S
WEST POINT*    MOSUNNY   78  55  45 E5        30.03F
NEWPORT NEWS   MOSUNNY   78  54  43 E8        30.02S
LANGLEY AFB    NOT AVBL
FORT EUSTIS    NOT AVBL
WILLIAMSBURG*  SUNNY     79  59  50 CALM      30.03S
HR EXEC AP*    SUNNY     77  57  50 NE5       30.03F
FRANKLIN*      SUNNY     75  57  53 SE6       30.02S
WAKEFIELD      SUNNY     76  57  51 CALM      30.02S
$$

VAZ020-022-025-037-045-181700-
WEST CENTRAL AND SOUTHWEST VIRGINIA

CITY           SKY/WX    TMP DP  RH WIND       PRES   REMARKS
STAUNTON*      SUNNY     71  54  55 CALM      30.05F
HOT SPRINGS VA PTSUNNY   57  39  51 NW5       30.12S
LYNCHBURG      MOSUNNY   70  62  76 VRB3      30.05S
DANVILLE       MOSUNNY   74  61  63 CALM      30.03F
SOUTH BOSTON*  NOT AVBL
MARTINSVILLE   PTSUNNY   72  63  73 CALM      30.06S
ROANOKE        MOSUNNY   72  57  59 CALM      30.05F
BLACKSBURG     SUNNY     70  59  68 W5        30.09S
DUBLIN*        PTSUNNY   69  58  69 CALM      30.09S
MARION*        CLOUDY    65  56  71 CALM      30.11S
HILLSVILLE*    MOSUNNY   65  56  73 SW3       30.09S
RICHLANDS*     CLOUDY    65  55  70 N3        30.10S
WISE*          CLOUDY    61  55  82 N5        30.12R
ABINGDON*      CLOUDY    66  58  77 SW5       30.08S
$$

MDZ021>025-VAZ099-100-181700-
SOUTHERN MARYLAND AND THE DELMARVA PENINSULA

CITY           SKY/WX    TMP DP  RH WIND       PRES   REMARKS
PATUXENT RIVER PTSUNNY   72  57  59 SE7       30.01F
BAY BRIDGE APT   N/A     72  59  64 W7        30.02S HAZE
LEONARDTOWN    PTSUNNY   70  55  60 SW6       30.04S
DOVER          NOT AVBL
GEORGETOWN     SUNNY     76  50  40 VRB7      30.02F
EASTON         PTSUNNY   73  61  64 CALM      30.05S
CAMBRIDGE      MOSUNNY   72  54  53 CALM      30.02
SALISBURY      SUNNY     77  48  35 CALM      30.01F
OCEAN CITY     SUNNY     73  52  47 VRB6      30.02S
WALLOPS ISLAND MOSUNNY   74  53  48 E5        30.02F
ACCOMACK*      SUNNY     73  48  40 NE5       30.02S
$$

NCZ012>017-030>032-181700-
EASTERN NORTH CAROLINA

CITY           SKY/WX    TMP DP  RH WIND       PRES   REMARKS
ELIZABETH CITY SUNNY     75  57  53 E9        30.01S
AHOSKIE*       SUNNY     73  59  60 NE3       30.02S
EDENTON*       SUNNY     76  60  57 NE6       30.01S
CURRITUCK*     SUNNY     75  52  45 NE7       30.02S
KILL DEVIL HLS SUNNY     74  54  48 NE7       30.00S
MANTEO         SUNNY     74  56  53 NE14      30.01S
CAPE HATTERAS  SUNNY     75  60  59 NE13G21   29.99R
TARBORO*       SUNNY     77  60  54 NE3       30.02F
GOLDSBORO      NOT AVBL
WASHINGTON     SUNNY     76  59  56 E9        30.01S
GREENVILLE     SUNNY     77  61  57 E5        30.02F
NEW BERN       SUNNY     79  60  52 E9        30.00F
WILMINGTON     SUNNY     77  67  71 NE7       29.98R
$$

VAZ048-181700-
ELSEWHERE

CITY           SKY/WX    TMP DP  RH WIND       PRES   REMARKS
HARRISBURG PA  MOSUNNY   74  47  38 VRB5      30.02F
BALTIMORE      PTSUNNY   71  59  65 VRB6      30.01S
ANNAPOLIS      MOSUNNY   71  59  65 SW7       30.02S
ANDREWS AFB    NOT AVBL
WILMINGTON DE  CLOUDY    69  53  56 CALM      30.02F
PHILADELPHIA   PTSUNNY   73  52  47 VRB5      30.01F
WILDWOOD NJ*   SUNNY     72  50  46 NW6       30.03R
ATLANTIC CITY  SUNNY     74  51  44 N9        30.01F
HENDERSON NC   SUNNY     74  56  53 CALM      30.03S
GREENSBORO     PTSUNNY   72  62  71 CALM      30.02F
ROCKY MOUNT    SUNNY     77  59  53 NE5       30.02S
FAYETTEVILLE   MOSUNNY   78  64  61 E7        30.00S
CHARLOTTE      PTSUNNY   74  64  71 CALM      30.02F
$$

VAZ100-181700-
MARINE

STATION/POSITION TIME  TEMP    WIND        PRES    WAVE   SWELL
                       AIR SEA DIR/SP/G            HT/PER HT/PER
                 (UTC) (F)     (DEG/KT/KT) (MB)    (FT/S) (FT/S)
44066 TX TWR #4  1600   68 73  340/ 10/ 14 1015.6S   4/11   3/11
CAPE MAY NJ      1600   70 76  310/  7/  8 1016.0F
LEWES DE         1600   69 72   10/  5/  5 1016.3S
15NM E FENWICK I 1600   69 72              1016.2F   4/13
OCEAN-CITY-INLET 1600   69 71  360/  4/  5 1016.1S
WACHAPREAGUE VA  1600   71 72   80/  6/ 11 1016.5S
THOMAS POINT MD  1600   68 74  170/  3/  4 1017.5F
GOOSES REEF MD   1600   70      CALM  /  2 1017.2R
COVE POINT MD    1600   69     160/  5/  6 1016.4F
SOLOMONS ISLAND  1600      76                N/A
BISHOPS HEAD MD  1600   71 72  130/  2/  3 1016.2S
PINEY POINT MD   1600          180/  2/  2   N/A
POTOMAC MD       1600   72     190/  4/  6 1016.0S
CAMBRIDGE MD     1600   71 74   10/  3/  4 1016.1F
LEWISETTA VA     1600   71 73   80/  4/  5 1016.1F
RAPPAHANNOCK LGT 1600          350/  4/  5 1017.1S
STINGRAY PT      1600   71     100/  4/  8   N/A
YORK RVR RNG VA  1600   71      80/  7/  9 1016.1S
YORKTOWN VA      1600   72 76  100/  8/ 10 1016.2F
JAMESTOWN VA     1600   72     150/  8/ 10   N/A
DOMINION TERM VA 1600   72     100/  7/ 11 1016.6F
KIPTOPEKE VA     1600      79   70/  5/ 10   N/A
CHES BAY BRIDGE  1600   71 75   50/  9/ 10 1016.0S
CAPE HENRY VA    1600   72      40/  8/  9 1015.3S
CHESAPEAKE LGHT  1500   70      40/ 14/ 16 1016.8R
WILLOUBY STN VA  1600   71      80/  6/  8 1015.3F
S CRANEY ISL VA  1600           10/  5/  6 1016.2S
CAPE HENRY BUOY  1600      75                N/A     4/13   2/13
1ST LANDING BUOY 1600   72      60/  8/ 12 1016.2F
CAPE CHARLES BUO 1600      75                N/A     3/14   3/14
OFFSHORE WE BUOY 1500      74                N/A     4/12   3/12
64NM E OF VA BCH 1600   71 77   30/ 14/ 17 1015.2R   5/12   3/12
DUCK PIER NC     1600   71 75   30/ 13/ 15 1015.4F
44100 DUCK FRF   1600      75                N/A     4/13   2/13
44056 DUCK FRF   1600                        N/A     4/12   2/12
OREGON INLET NC  1600   73 74   10/ 12/ 19 1015.7F
HATTERAS NC      1600   74 76   40/ 14/ 20 1015.9R
DIAMOND SHLS NC  1600   74      10/ 17/ 21 1014.8R   6/11   3/11
CAPE LOOKOUT NC  1500   75      40/ 17/ 19 1015.1R
$$


USA.gov is the U.S. government's official web portal to all federal, state and local government web resources and services.